| time (UTC) | temp F | wind direction | speed MPH | gust MPH | rain 1hr in | rain 24hr in | rain mn in | humidity % | barometer mb |
| 20260903220236 | 63 | 230 | 6.0 | 0.0 | 0.00 | 0.00 | 0.00 | 72 | 1018.0 |
| 20260903213224 | 63 | 250 | 6.0 | 0.0 | 0.00 | 0.00 | 0.00 | 72 | 1018.0 |
| 20260903212235 | 64 | 250 | 5.0 | 0.0 | 0.00 | 0.00 | 0.00 | 67 | |
| 20260903210236 | 63 | 240 | 6.0 | 0.0 | 0.00 | 0.00 | 0.00 | 72 | 1018.0 |
| 20260903203224 | 64 | 180 | 7.0 | 0.0 | 0.00 | 0.00 | 0.00 | 67 | 1018.0 |
| 20260903202235 | 66 | 180 | 7.0 | 0.0 | 0.00 | 0.00 | 0.00 | 63 | |
| 20260903200235 | 66 | 190 | 8.0 | 0.0 | 0.00 | 0.00 | 0.00 | 63 | 1018.0 |
| 20260903193224 | 66 | 180 | 6.0 | 0.0 | 0.00 | 0.00 | 0.00 | 63 | 1018.0 |
| 20260903192436 | 68 | 200 | 5.0 | 0.0 | 0.00 | 0.00 | 0.00 | 56 | |
| 20260903190238 | 66 | 210 | 6.0 | 0.0 | 0.00 | 0.00 | 0.00 | 59 | 1018.0 |
| 20260903183231 | 68 | 220 | 6.0 | 0.0 | 0.00 | 0.00 | 0.00 | 56 | 1018.0 |
| 20260903182235 | 68 | 230 | 5.0 | 0.0 | 0.00 | 0.00 | 0.00 | 56 | |
| 20260903180236 | 68 | 240 | 5.0 | 0.0 | 0.00 | 0.00 | 0.00 | 56 | 1018.0 |
| 20260903173230 | 70 | 270 | 6.0 | 0.0 | 0.00 | 0.00 | 0.00 | 52 | 1018.0 |
| 20260903172248 | 70 | 240 | 7.0 | 0.0 | 0.00 | 0.00 | 0.00 | 52 | |
| 20260903170235 | 68 | 250 | 6.0 | 0.0 | 0.00 | 0.00 | 0.00 | 52 | 1018.0 |
| 20260903163231 | 72 | 270 | 8.0 | 0.0 | 0.00 | 0.00 | 0.00 | 46 | 1018.0 |
| 20260903162529 | 73 | 260 | 9.0 | 0.0 | 0.00 | 0.00 | 0.00 | 40 | |
| 20260903160235 | 73 | 260 | 9.0 | 0.0 | 0.00 | 0.00 | 0.00 | 43 | 1018.0 |
| 20260903153230 | 75 | 260 | 9.0 | 0.0 | 0.00 | 0.00 | 0.00 | 41 | 1018.0 |
| 20260903152237 | 73 | 260 | 12.0 | 0.0 | 0.00 | 0.00 | 0.00 | 46 | |
| 20260903150233 | 73 | 260 | 10.0 | 0.0 | 0.00 | 0.00 | 0.00 | 43 | 1018.0 |
| 20260903143231 | 73 | 240 | 10.0 | 0.0 | 0.00 | 0.00 | 0.00 | 49 | 1018.0 |
| 20260903142206 | 73 | 260 | 12.0 | 0.0 | 0.00 | 0.00 | 0.00 | 46 | |
| 20260903140235 | 75 | 260 | 12.0 | 0.0 | 0.00 | 0.00 | 0.00 | 38 | 1018.0 |
| 20260903133231 | 75 | 260 | 7.0 | 0.0 | 0.00 | 0.00 | 0.00 | 44 | 1018.0 |
| 20260903132405 | 75 | 0 | 5.0 | 0.0 | 0.00 | 0.00 | 0.00 | 41 | |
| 20260903130236 | 75 | 310 | 6.0 | 0.0 | 0.00 | 0.00 | 0.00 | 41 | 1018.0 |
| 20260903123231 | 73 | 350 | 3.0 | 0.0 | 0.00 | 0.00 | 0.00 | 49 | 1018.0 |
| 20260903122204 | 73 | 360 | 7.0 | 0.0 | 0.00 | 0.00 | 0.00 | 49 | |
| 20260903120234 | 72 | 360 | 6.0 | 0.0 | 0.00 | 0.00 | 0.00 | 53 | 1019.0 |
| 20260903113231 | 73 | 240 | 12.0 | 0.0 | 0.00 | 0.00 | 0.00 | 49 | 1018.0 |
| 20260903112155 | 72 | 220 | 12.0 | 0.0 | 0.00 | 0.00 | 0.00 | 53 | |
| 20260903110234 | 72 | 220 | 13.0 | 0.0 | 0.00 | 0.00 | 0.00 | 49 | 1019.0 |
| 20260903103224 | 73 | 210 | 13.0 | 0.0 | 0.00 | 0.00 | 0.00 | 49 | 1019.0 |
| 20260903102558 | 73 | 200 | 12.0 | 0.0 | 0.00 | 0.00 | 0.00 | 49 | |
| 20260903100232 | 73 | 190 | 10.0 | 0.0 | 0.00 | 0.00 | 0.00 | 49 | 1019.0 |
| 20260903093231 | 72 | 200 | 10.0 | 0.0 | 0.00 | 0.00 | 0.00 | 56 | 1019.0 |
| 20260903092157 | 72 | 220 | 9.0 | 0.0 | 0.00 | 0.00 | 0.00 | 53 | |
| 20260903090233 | 72 | 230 | 9.0 | 0.0 | 0.00 | 0.00 | 0.00 | 53 | 1020.0 |
| 20260903083231 | 70 | 0 | 5.0 | 0.0 | 0.00 | 0.00 | 0.00 | 60 | 1020.0 |
| 20260903082155 | 68 | 0 | 7.0 | 0.0 | 0.00 | 0.00 | 0.00 | 64 | |
| 20260903080239 | 66 | 250 | 5.0 | 0.0 | 0.00 | 0.00 | 0.00 | 63 | 1020.0 |
| 20260903073231 | 64 | 240 | 5.0 | 0.0 | 0.00 | 0.00 | 0.00 | 72 | 1020.0 |
| 20260903072356 | 64 | 0 | 2.0 | 0.0 | 0.00 | 0.00 | 0.00 | 72 | |
| 20260903070239 | 63 | 0 | 2.0 | 0.0 | 0.00 | 0.00 | 0.00 | 77 | 1020.0 |
| 20260903063230 | 61 | 0 | 2.0 | 0.0 | 0.00 | 0.00 | 0.00 | 82 | 1020.0 |
| 20260903062155 | 61 | 0 | 5.0 | 0.0 | 0.00 | 0.00 | 0.00 | 77 | |
| 20260903060234 | 59 | 210 | 5.0 | 0.0 | 0.00 | 0.00 | 0.00 | 82 | 1020.0 |
| 20260903053223 | 57 | 230 | 6.0 | 0.0 | 0.00 | 0.00 | 0.00 | 87 | 1020.0 |
| 20260903052156 | 57 | 0 | 2.0 | 0.0 | 0.00 | 0.00 | 0.00 | 87 | |
| 20260903050226 | 57 | 200 | 2.0 | 0.0 | 0.00 | 0.00 | 0.00 | 82 | 1020.0 |
| 20260903043224 | 55 | 0 | 1.0 | 0.0 | 0.00 | 0.00 | 0.00 | 93 | 1020.0 |
| 20260903042558 | 57 | 0 | 2.0 | 0.0 | 0.00 | 0.00 | 0.00 | 82 | |
| 20260903040233 | 57 | 0 | 1.0 | 0.0 | 0.00 | 0.00 | 0.00 | 87 | 1020.0 |
| 20260903033224 | 57 | 260 | 3.0 | 0.0 | 0.00 | 0.00 | 0.00 | 87 | 1019.0 |
| 20260903032155 | 57 | 0 | 5.0 | 0.0 | 0.00 | 0.00 | 0.00 | 87 | |
| 20260903030234 | 57 | 280 | 2.0 | 0.0 | 0.00 | 0.00 | 0.00 | 87 | 1020.0 |
| 20260903023224 | 59 | 190 | 6.0 | 0.0 | 0.00 | 0.00 | 0.00 | 82 | 1020.0 |
| 20260903022155 | 59 | 190 | 7.0 | 0.0 | 0.00 | 0.00 | 0.00 | 82 | |
| 20260903020233 | 59 | 180 | 7.0 | 0.0 | 0.00 | 0.00 | 0.00 | 82 | 1020.0 |
| 20260903013224 | 61 | 170 | 5.0 | 0.0 | 0.00 | 0.00 | 0.00 | 77 | 1020.0 |
| 20260903012356 | 61 | 170 | 5.0 | 0.0 | 0.00 | 0.00 | 0.00 | 77 | |
| 20260903010233 | 61 | 170 | 5.0 | 0.0 | 0.00 | 0.00 | 0.00 | 77 | 1020.0 |
| 20260903003224 | 61 | 200 | 5.0 | 0.0 | 0.00 | 0.00 | 0.00 | 77 | 1020.0 |
| 20260903002158 | 59 | 180 | 2.0 | 0.0 | 0.00 | 0.00 | 0.00 | 82 | |
| 20260903000233 | 59 | 0 | 2.0 | 0.0 | 0.00 | 0.00 | 0.00 | 87 | 1020.0 |
| 20260902233224 | 59 | 230 | 6.0 | 0.0 | 0.00 | 0.00 | 0.00 | 82 | 1020.0 |
| 20260902232155 | 59 | 210 | 5.0 | 0.0 | 0.00 | 0.00 | 0.00 | 82 | |
| 20260902230232 | 59 | 0 | 2.0 | 0.0 | 0.00 | 0.00 | 0.00 | 82 | 1020.0 |
| 20260902223223 | 61 | 0 | 2.0 | 0.0 | 0.00 | 0.00 | 0.00 | 77 | 1020.0 |
| 20260902222558 | 61 | 190 | 2.0 | 0.0 | 0.00 | 0.00 | 0.00 | 82 |